Location: Buckland
(65.9785°N, 161.1281°W)
Time: 06:52:13
(UTC+00:00)

Transit 2A Rocket - Pass Details

Date: 26 November 2020
Orbit: 592 x 910 km, 66.7° (Epoch: 21 January)

Event Time Altitude Azimuth Distance (km) Brightness Sun altitude
Exits shadow 15:43:05 51° 217° (SW) 1,020 5.3 -24.2°
Maximum altitude 15:44:26 72° 152° (SSE) 845 5.2 -24.0°
Drops below altitude 10° 15:49:39 10° 69° (ENE) 2,275 8.4 -23.5°
Sets 15:51:55 0° 68° (ENE) 3,149 9.3 -23.3°
